Date,TemperatureHighF,TemperatureAvgF,TemperatureLowF,DewpointHighF,DewpointAvgF,DewpointLowF,HumidityHigh,HumidityAvg,HumidityLow,PressureMaxIn,PressureMinIn,WindSpeedMaxMPH,WindSpeedAvgMPH,GustSpeedMaxMPH,PrecipitationSumIn
2013-1-1,24.7,16.7,8.6,17.0,12.8,5.8,92,85,71,27.65,27.50,12,1,15,0.00
2013-1-2,21.1,14.1,6.6,14.1,11.0,3.8,91,87,72,27.70,27.65,4,0,5,0.00
2013-1-3,22.7,10.8,5.9,13.9,6.9,3.1,90,84,68,27.69,27.55,3,0,4,0.00
2013-1-4,25.0,9.9,0.2,16.9,6.0,-2.9,90,84,69,27.71,27.57,5,0,6,0.00
2013-1-5,24.6,11.7,1.9,17.1,7.8,-1.3,89,84,72,27.66,27.43,7,0,11,0.00
2013-1-6,30.7,21.9,15.1,21.8,17.0,12.5,92,81,65,27.43,27.21,9,1,11,0.00
2013-1-7,24.6,17.6,8.9,22.9,15.5,6.6,93,91,89,27.36,27.29,1,0,2,0.25
2013-1-8,31.8,28.0,23.1,30.2,26.3,21.4,96,93,89,27.35,27.29,0,0,1,0.06
2013-1-9,34.0,30.0,24.6,32.5,28.9,23.3,97,96,93,27.29,26.68,6,0,8,0.00
2013-1-10,34.4,29.1,21.3,33.4,26.5,19.1,97,90,78,26.76,26.62,22,4,28,0.08
2013-1-11,29.5,20.1,4.0,19.3,14.4,1.0,93,80,54,27.21,26.78,10,2,14,0.00
2013-1-12,19.5,3.8,-9.7,9.2,-1.6,-13.2,88,79,56,27.45,27.22,8,0,16,0.00
2013-1-13,19.0,1.4,-9.9,7.8,-3.9,-13.4,86,79,58,27.62,27.45,10,0,13,0.00
2013-1-14,18.3,6.8,-6.9,12.4,3.1,-10.7,88,85,75,27.68,27.61,1,0,2,0.00
2013-1-15,28.2,18.1,6.3,17.3,13.0,3.3,89,81,61,27.81,27.66,13,0,14,0.00
2013-1-16,24.5,9.1,-1.4,15.7,4.9,-4.5,90,83,68,27.93,27.81,11,1,16,0.00
2013-1-17,23.3,9.1,-2.1,15.6,5.0,-5.5,90,83,70,27.95,27.75,11,1,14,0.00
2013-1-18,24.3,8.2,-2.2,16.4,4.1,-5.3,89,83,71,27.79,27.63,12,0,12,0.00
2013-1-19,24.3,7.9,-4.3,16.6,3.4,-7.6,88,82,71,27.82,27.67,12,1,14,0.00
2013-1-20,24.2,8.1,-4.3,16.5,3.8,-7.9,88,83,72,27.80,27.65,11,1,15,0.00
2013-1-21,26.4,9.5,-2.7,18.3,5.1,-6.1,89,83,70,27.74,27.53,6,0,10,0.00
2013-1-22,28.0,9.7,-2.3,18.8,5.6,-5.4,90,83,68,27.62,27.43,15,1,16,0.00
2013-1-23,27.9,14.0,1.6,22.9,10.1,-1.4,90,84,72,27.49,27.29,4,0,4,0.00
2013-1-24,37.5,30.9,26.7,33.9,28.8,22.8,96,92,84,27.35,27.28,3,0,3,0.32
2013-1-25,39.0,34.5,32.4,36.8,33.3,31.4,97,95,90,27.32,27.01,8,0,11,0.13
2013-1-26,41.7,35.7,33.0,38.4,34.2,32.1,97,94,84,27.05,26.79,11,1,14,0.14
2013-1-27,37.2,31.6,22.3,32.0,27.5,19.8,97,86,60,27.01,26.87,14,1,15,0.00
2013-1-28,31.6,25.3,17.7,28.9,23.2,15.8,95,92,83,27.08,26.95,2,0,5,0.09
2013-1-29,41.8,32.5,26.5,32.4,28.9,25.3,96,87,58,27.24,26.92,15,1,15,0.10
2013-1-30,37.9,33.1,30.7,35.3,31.7,29.2,97,95,90,27.34,27.23,4,0,5,0.02
2013-1-31,38.6,34.1,32.2,35.4,32.7,31.1,97,95,87,27.38,27.28,1,0,2,0.00
2013-2-1,45.1,34.6,26.0,37.5,32.2,24.6,98,91,68,27.46,27.28,3,0,4,0.00
2013-2-2,42.1,29.5,21.8,32.6,26.5,19.8,96,89,62,27.56,27.41,9,1,11,0.00
2013-2-3,41.5,29.8,20.6,31.9,26.1,19.0,96,87,66,27.42,27.22,12,2,17,0.00
2013-2-4,43.9,32.0,23.8,33.0,27.9,22.1,95,86,62,27.29,27.10,10,0,12,0.00
2013-2-5,42.9,33.2,26.1,34.2,29.8,24.9,96,88,70,27.10,26.88,5,0,6,0.00
2013-2-6,42.6,31.4,22.2,31.7,27.3,20.2,96,86,57,27.17,27.01,11,1,13,0.00
2013-2-7,36.9,27.2,20.4,28.9,23.3,18.7,95,86,65,27.15,26.94,2,0,3,0.00
2013-2-8,45.8,33.6,24.2,28.6,24.3,20.7,95,72,46,26.97,26.78,18,4,18,0.00
2013-2-9,42.8,36.3,31.9,24.4,20.6,17.4,63,53,38,26.95,26.83,18,7,19,0.00
2013-2-10,44.5,31.1,18.0,22.6,17.5,11.8,90,60,26,27.18,26.96,11,2,12,0.00
2013-2-11,40.2,24.7,12.1,23.6,16.4,9.3,91,73,40,27.32,27.18,20,2,20,0.00
2013-2-12,42.5,28.4,17.9,30.0,23.0,15.7,93,81,57,27.41,27.31,13,1,16,0.00
2013-2-13,45.9,36.1,29.6,33.2,29.8,26.8,90,79,58,27.39,27.22,13,1,15,0.00
2013-2-14,45.0,31.1,20.4,30.7,24.8,18.7,100,80,47,27.54,27.31,16,2,21,0.00
2013-2-15,51.3,30.4,18.9,31.5,24.0,16.7,93,79,45,27.61,27.40,3,0,5,0.00
2013-2-16,53.2,33.9,19.6,36.3,27.1,17.4,94,78,47,27.44,26.96,8,1,11,0.06
2013-2-17,43.8,33.5,23.1,33.1,25.9,20.4,95,76,39,27.14,27.00,12,2,15,0.00
2013-2-18,40.4,27.7,17.2,25.8,20.2,15.0,92,76,44,27.17,26.84,2,0,5,0.00
2013-2-19,39.6,31.5,25.2,32.5,27.6,21.8,95,86,70,26.83,26.67,12,1,15,0.02
2013-2-20,43.7,32.0,21.5,27.5,21.6,16.0,95,69,39,26.94,26.76,15,3,19,0.00
2013-2-21,39.7,28.2,15.0,29.4,19.7,11.9,92,72,42,27.13,26.95,12,2,14,0.00
2013-2-22,37.9,31.7,27.1,32.9,29.2,25.3,95,90,78,27.16,26.84,2,0,4,0.22
2013-2-23,37.8,32.2,25.4,31.5,26.2,21.9,96,80,53,27.21,26.73,15,3,20,0.18
2013-2-24,39.4,26.8,19.1,25.7,20.6,16.4,93,79,51,27.40,27.21,13,2,16,0.00
2013-2-25,34.5,25.3,16.1,28.7,22.3,13.9,94,88,76,27.32,27.11,4,0,4,0.11
2013-2-26,38.0,28.6,19.6,27.8,21.8,16.7,95,78,52,27.42,27.21,14,3,17,0.00
2013-2-27,44.7,27.7,15.3,26.4,20.3,12.8,92,76,40,27.52,27.35,4,0,6,0.00
2013-2-28,35.7,31.6,25.0,33.1,29.1,22.3,95,90,83,27.55,27.41,2,0,4,0.19
2013-3-1,50.5,37.6,31.7,42.5,34.8,30.2,97,90,73,27.58,27.43,3,0,4,0.01
2013-3-2,53.3,38.5,31.3,41.3,34.5,30.3,97,87,61,27.49,27.01,3,0,6,0.00
2013-3-3,45.2,37.0,24.7,36.5,25.4,10.9,97,68,25,27.11,26.95,19,3,21,0.08
2013-3-4,45.4,29.1,16.6,21.8,16.9,10.9,90,65,27,27.31,27.11,9,1,10,0.00
2013-3-5,50.1,31.8,18.9,31.3,21.6,15.4,90,69,33,27.23,26.79,4,0,4,0.00
2013-3-6,46.1,37.4,28.8,38.6,31.6,26.0,90,80,64,26.95,26.62,17,2,21,0.15
2013-3-7,48.8,35.7,27.4,31.7,27.0,22.4,96,75,35,27.07,26.91,7,1,9,0.01
2013-3-8,52.8,35.2,22.3,28.4,24.3,20.3,93,69,32,26.97,26.80,14,2,18,0.00
2013-3-9,53.2,38.0,22.3,26.6,23.1,19.8,91,60,29,27.35,26.96,11,2,17,0.00
2013-3-10,53.4,36.1,21.7,29.8,23.5,18.1,92,65,25,27.44,27.26,18,2,18,0.00
2013-3-11,55.4,43.5,34.6,36.7,32.3,29.6,87,67,40,27.28,27.12,16,3,19,0.00
2013-3-12,59.1,40.1,27.7,41.3,32.3,25.8,94,76,44,27.28,27.12,4,0,5,0.00
2013-3-13,66.6,45.3,31.9,42.0,35.7,30.1,95,73,36,27.27,27.09,7,1,11,0.00
2013-3-14,62.1,42.3,27.8,42.9,33.9,26.3,95,76,40,27.23,27.04,3,0,6,0.00
2013-3-15,61.0,44.3,32.2,39.3,33.9,30.1,94,71,35,27.12,26.97,13,2,18,0.00
2013-3-16,55.9,39.7,24.7,38.9,30.5,23.0,95,74,35,27.08,26.80,14,2,20,0.13
2013-3-17,42.5,36.0,28.5,38.1,25.1,16.2,93,67,35,27.08,26.79,16,3,19,0.10
2013-3-18,47.2,33.4,25.3,29.9,24.0,20.5,89,71,35,27.19,27.06,16,1,17,0.00
2013-3-19,56.0,36.1,19.1,31.0,20.9,11.6,93,62,18,27.32,26.98,4,0,11,0.00
2013-3-20,54.7,42.4,36.1,44.8,37.7,29.9,94,84,64,26.96,26.56,20,3,28,0.68
2013-3-21,41.7,35.4,30.9,32.1,24.4,16.6,92,65,42,27.06,26.79,19,3,20,0.00
2013-3-22,38.4,31.1,26.5,28.9,24.5,20.2,93,78,51,27.19,27.00,16,3,18,0.04
2013-3-23,41.9,28.3,16.9,21.2,16.4,10.9,89,66,28,27.37,27.20,14,2,17,0.00
2013-3-24,46.2,26.1,17.0,22.3,16.6,7.0,90,72,21,27.36,27.17,10,0,11,0.00
2013-3-25,53.7,36.4,22.7,31.2,23.3,19.6,90,64,29,27.23,26.95,7,0,7,0.00
2013-3-26,55.3,41.5,31.3,39.4,33.3,27.9,89,74,52,26.97,26.86,14,2,17,0.00
2013-3-27,59.0,41.7,30.1,41.2,34.1,28.1,95,77,44,27.00,26.89,9,1,11,0.01
2013-3-28,63.9,46.4,29.9,41.5,34.4,28.4,95,68,32,27.05,26.92,15,2,17,0.00
2013-3-29,64.4,49.7,37.3,42.9,38.2,34.7,92,68,36,27.11,27.01,14,3,16,0.00
2013-3-30,67.3,47.1,31.0,40.2,33.5,29.5,95,66,26,27.23,27.01,12,2,14,0.00
2013-3-31,72.9,51.4,26.3,36.3,26.8,10.6,100,52,9,27.10,26.76,5,1,8,0.00
2013-4-1,65.1,46.9,27.7,44.7,35.0,25.2,93,66,42,26.94,26.80,15,3,18,0.00
2013-4-2,67.6,48.5,30.1,43.9,36.9,28.6,96,69,33,27.04,26.90,15,3,19,0.00
2013-4-3,68.4,48.1,30.6,43.5,36.1,29.1,96,68,33,27.12,26.94,13,1,17,0.00
2013-4-4,61.3,47.4,35.7,48.3,40.3,33.3,94,78,50,26.99,26.76,16,1,20,0.02
2013-4-5,59.9,49.7,40.2,45.9,40.3,34.0,96,73,38,26.90,26.81,10,1,14,0.05
2013-4-6,52.6,45.1,40.1,44.9,41.2,36.0,97,86,68,26.91,26.83,7,1,11,0.19
2013-4-7,56.3,45.5,37.2,44.7,39.1,32.9,96,80,41,26.84,26.57,20,3,30,0.83
2013-4-8,53.9,42.1,29.3,35.4,30.1,26.7,96,66,36,26.89,26.62,21,4,24,0.01
2013-4-9,60.2,46.9,31.0,27.8,25.2,22.5,76,45,24,27.12,26.91,18,5,23,0.00
2013-4-10,55.4,42.7,28.4,44.4,32.1,25.3,91,68,43,27.17,26.91,11,1,12,0.01
2013-4-11,58.5,43.7,27.7,35.8,30.7,25.7,94,64,32,27.08,26.89,16,4,20,0.00
2013-4-12,59.3,44.0,24.0,34.9,26.0,17.4,92,56,21,27.05,26.63,13,2,19,0.00
2013-4-13,48.3,45.0,31.0,41.5,25.6,9.7,89,50,23,26.82,26.53,24,6,27,0.07
2013-4-14,46.3,34.8,21.6,27.7,21.6,17.5,87,61,34,26.92,26.75,14,2,18,0.00
2013-4-15,46.4,36.1,27.6,33.6,28.8,24.4,92,76,50,26.80,26.70,15,2,20,0.02
2013-4-16,53.4,40.5,30.3,30.6,24.3,17.8,95,58,25,27.06,26.80,19,4,23,0.01
2013-4-17,52.6,40.4,24.8,20.8,15.0,8.3,75,39,17,27.26,27.07,13,4,19,0.00
2013-4-18,56.0,39.7,20.3,30.7,21.7,14.7,83,52,29,27.37,27.19,14,3,18,0.00
2013-4-19,49.7,43.4,38.2,46.0,39.0,31.0,94,85,70,27.23,26.94,5,0,7,0.27
2013-4-20,57.6,48.3,36.8,43.0,38.9,33.0,95,73,41,27.09,27.00,18,4,22,0.02
2013-4-21,58.5,44.6,28.5,40.5,32.4,27.0,95,67,36,27.12,26.92,15,3,19,0.01
2013-4-22,55.1,46.9,37.0,32.1,24.1,12.7,69,43,20,27.23,26.99,18,5,20,0.00
2013-4-23,54.8,39.0,21.7,25.5,20.7,11.6,84,53,20,27.32,27.07,11,2,15,0.00
2013-4-24,61.9,42.0,22.3,30.5,24.7,19.2,91,57,24,27.32,27.04,15,3,18,0.00
2013-4-25,68.3,47.1,27.1,34.9,29.0,23.9,91,56,22,27.08,26.88,13,3,18,0.00
2013-4-26,74.2,51.2,29.1,42.4,34.1,26.8,93,59,21,27.20,27.02,16,2,17,0.00
2013-4-27,74.0,53.7,32.7,41.4,34.9,26.1,94,57,17,27.21,26.92,17,2,17,0.00
2013-4-28,67.1,53.2,40.0,40.1,36.0,31.6,85,57,27,27.00,26.86,22,4,24,0.00
2013-4-29,63.7,48.0,36.4,43.1,33.0,17.9,88,61,26,26.90,26.68,23,4,26,0.01
2013-4-30,51.7,38.8,23.6,27.0,20.8,13.9,85,52,23,27.23,26.82,14,3,20,0.00
2013-5-1,60.2,42.3,21.6,24.7,19.4,13.4,84,45,18,27.54,27.24,16,3,23,0.00
2013-5-2,69.3,48.8,23.3,34.4,24.7,18.9,85,46,17,27.64,27.23,9,2,12,0.00
2013-5-3,71.3,51.7,31.5,34.0,30.3,27.1,88,51,20,27.25,26.93,18,2,19,0.00
2013-5-4,71.1,54.7,34.8,38.7,32.9,28.8,87,49,21,26.97,26.78,16,2,17,0.00
2013-5-5,75.9,51.3,31.5,48.9,36.9,28.9,92,63,23,26.88,26.68,11,1,19,0.01
2013-5-6,80.3,54.5,34.7,48.0,38.8,32.1,96,63,18,26.85,26.63,12,1,18,0.00
2013-5-7,76.9,56.7,39.0,51.4,44.6,36.9,94,67,34,26.84,26.65,20,4,21,0.01
2013-5-8,79.0,57.5,42.0,50.6,46.5,40.4,96,71,32,26.97,26.80,22,2,28,0.02
2013-5-9,81.7,57.7,39.6,59.5,48.0,38.0,96,74,28,27.06,26.87,18,2,22,0.08
2013-5-10,84.6,62.1,37.8,54.6,43.2,32.7,96,60,18,27.16,26.97,21,2,23,0.02
2013-5-11,85.7,60.1,38.8,52.6,43.4,36.7,95,62,18,27.17,26.94,9,1,13,0.00
2013-5-12,88.6,64.1,42.7,57.3,45.5,39.9,93,59,19,27.07,26.77,8,1,11,0.00
2013-5-13,88.5,69.6,43.5,51.5,42.9,29.0,95,47,12,26.93,26.64,16,3,24,0.00
2013-5-14,75.3,60.1,42.7,45.7,42.2,37.9,91,56,26,26.91,26.74,16,3,16,0.00
2013-5-15,78.1,59.2,38.8,47.8,40.5,36.1,93,57,24,26.91,26.66,10,2,14,0.00
2013-5-16,67.8,58.1,49.3,48.8,43.3,36.0,85,61,36,26.76,26.65,12,2,14,0.00
2013-5-17,64.1,54.6,46.2,50.7,46.7,38.5,94,76,47,26.83,26.70,11,2,14,0.03
2013-5-18,65.9,51.5,39.0,47.3,39.3,33.8,96,69,31,26.96,26.83,16,3,18,0.01
2013-5-19,67.5,52.9,37.3,40.8,37.0,32.9,92,60,31,27.07,26.96,16,3,17,0.00
2013-5-20,74.4,56.3,34.1,45.0,39.2,31.9,93,58,28,27.13,26.85,13,3,19,0.00
2013-5-21,79.6,56.9,35.2,47.5,37.2,32.0,94,56,19,26.88,26.41,20,3,26,0.00
2013-5-22,55.4,47.2,31.4,38.5,27.5,11.2,78,50,18,26.89,26.51,23,7,25,0.00
2013-5-23,65.4,44.6,22.1,28.9,21.1,13.1,87,48,15,26.96,26.78,16,3,18,0.00
2013-5-24,69.0,49.9,30.3,36.7,29.7,25.2,83,51,24,26.96,26.80,19,3,20,0.00
2013-5-25,70.7,57.4,44.1,41.0,36.5,31.5,78,50,24,26.83,26.75,12,3,17,0.00
2013-5-26,66.9,53.5,39.1,48.7,40.8,34.3,86,64,38,26.84,26.75,14,2,20,0.00
2013-5-27,66.2,53.3,44.5,49.6,44.3,35.5,95,76,33,26.90,26.73,10,1,18,0.13
2013-5-28,61.8,53.2,46.0,49.4,47.5,43.8,95,82,53,26.73,26.66,16,2,21,0.34
2013-5-29,63.0,50.1,42.9,48.7,44.9,40.5,95,83,51,26.82,26.64,23,1,30,0.08
2013-5-30,65.1,50.6,38.3,44.0,39.5,34.2,96,70,32,27.00,26.83,15,2,18,0.01
2013-5-31,70.6,52.9,32.6,41.3,36.9,31.1,96,61,28,27.17,27.01,14,3,20,0.00
2013-6-1,77.7,57.1,34.4,48.1,37.9,32.3,94,57,20,27.17,26.82,13,2,13,0.00
2013-6-2,75.9,60.5,43.1,46.7,40.3,29.0,91,54,19,26.83,26.62,19,4,24,0.00
2013-6-3,75.1,58.1,37.3,44.1,38.2,34.0,90,53,23,26.91,26.80,12,2,15,0.00
2013-6-4,80.4,60.0,37.1,45.3,39.5,34.1,92,54,22,26.97,26.82,13,2,14,0.00
2013-6-5,84.9,63.1,40.3,49.8,42.6,37.8,92,55,20,26.99,26.79,12,2,13,0.00
2013-6-6,89.0,65.5,43.7,56.5,46.5,40.8,92,58,21,26.93,26.71,8,1,11,0.00
2013-6-7,89.0,71.0,47.1,51.3,45.8,39.7,91,49,19,26.85,26.67,14,4,18,0.00
2013-6-8,87.2,66.5,44.2,50.1,43.7,35.4,91,52,17,26.86,26.74,14,3,18,0.00
2013-6-9,88.8,66.9,43.3,57.0,46.4,40.6,91,55,21,26.85,26.56,10,2,12,0.00
2013-6-10,90.5,70.6,49.2,51.0,45.8,33.5,90,49,18,26.64,26.39,12,3,16,0.00
2013-6-11,81.8,63.8,47.3,51.8,45.4,38.9,90,58,22,26.69,26.50,19,2,21,0.01
2013-6-12,79.8,63.1,41.8,46.1,40.1,31.9,91,51,18,26.82,26.65,16,3,20,0.00
2013-6-13,69.5,60.0,50.4,48.7,41.9,33.7,92,54,28,26.93,26.73,19,3,25,0.09
2013-6-14,69.0,54.0,43.0,45.6,40.9,33.6,93,66,27,27.13,26.93,11,2,16,0.23
2013-6-15,82.1,57.7,34.4,48.5,38.5,25.9,95,59,15,27.05,26.77,5,1,9,0.00
2013-6-16,90.0,62.9,38.5,52.5,40.0,27.7,93,54,11,26.92,26.72,10,1,13,0.00
2013-6-17,89.1,65.8,41.7,51.0,41.2,31.5,92,50,13,26.90,26.62,13,2,17,0.00
2013-6-18,85.3,65.2,42.6,46.2,41.9,34.6,90,50,17,26.73,26.43,19,3,26,0.00
2013-6-19,66.1,54.7,46.7,51.7,46.5,41.9,92,75,50,26.92,26.50,23,4,29,0.33
2013-6-20,66.2,52.7,44.7,46.7,41.7,33.0,94,71,29,26.98,26.88,6,1,9,0.05
2013-6-21,66.5,52.9,35.5,43.9,38.3,33.9,95,63,32,27.02,26.93,13,3,19,0.00
2013-6-22,73.2,57.1,39.1,47.6,43.2,36.7,94,64,33,27.01,26.81,13,3,17,0.00
2013-6-23,80.5,59.6,38.5,58.3,45.4,36.7,95,65,28,26.85,26.46,5,1,7,0.00
2013-6-24,69.2,61.6,54.9,58.5,54.8,50.3,95,80,55,26.68,26.48,13,2,18,0.32
2013-6-25,64.3,58.6,54.3,58.7,55.7,52.9,95,90,77,26.84,26.68,7,1,11,0.33
2013-6-26,81.2,66.2,57.6,61.3,57.9,54.6,96,78,40,26.93,26.83,5,1,9,0.19
2013-6-27,92.0,71.5,50.5,62.4,53.6,40.8,97,62,17,27.06,26.92,15,1,15,0.00
2013-6-28,99.3,69.8,48.6,65.4,51.5,40.9,95,63,14,27.09,26.77,4,1,7,0.00
2013-6-29,99.2,74.8,56.6,68.0,58.4,50.4,91,63,20,26.87,26.63,9,2,12,0.00
2013-6-30,101.0,76.7,56.1,62.2,57.8,51.9,94,60,20,26.88,26.65,6,1,7,0.00
2013-7-1,105.9,83.4,56.6,71.0,58.1,51.5,92,50,17,26.84,26.64,6,1,8,0.00
2013-7-2,103.6,82.3,61.4,67.8,60.9,54.5,90,55,21,26.86,26.65,9,2,14,0.00
2013-7-3,99.0,81.7,66.0,65.2,59.8,47.5,82,52,18,26.82,26.60,13,3,18,0.00
2013-7-4,92.9,73.2,56.4,63.3,54.8,44.4,92,59,19,26.75,26.55,10,1,11,0.00
2013-7-5,88.9,70.3,49.2,55.3,49.3,44.4,91,54,22,26.69,26.52,14,3,16,0.00
2013-7-6,91.0,73.4,44.2,53.1,45.3,39.9,91,44,17,26.74,26.54,11,2,14,0.00
2013-7-7,93.5,71.1,46.6,55.2,46.9,38.4,87,49,15,26.73,26.55,9,2,12,0.00
2013-7-8,91.6,70.7,47.4,54.7,47.4,41.7,89,51,18,26.85,26.63,10,2,22,0.00
2013-7-9,96.5,69.3,44.6,57.8,44.9,34.9,89,51,12,27.02,26.78,9,1,10,0.00
2013-7-10,98.0,71.8,46.7,58.9,46.4,40.3,86,50,15,26.88,26.57,16,2,20,0.00
2013-7-11,85.8,67.4,54.7,56.0,50.9,43.9,86,61,24,26.73,26.73,13,2,14,0.01
2013-7-12,91.2,68.2,47.2,55.4,48.2,35.0,96,59,14,26.80,26.56,14,2,20,0.00
2013-7-13,86.1,66.1,45.0,49.8,43.2,37.2,87,51,18,26.89,26.65,13,2,18,0.00
2013-7-14,93.8,67.8,43.0,53.9,41.2,32.5,86,48,12,26.99,26.74,7,1,12,0.00
2013-7-15,99.1,73.4,44.5,59.3,44.0,34.9,83,44,11,26.84,26.56,11,2,13,0.00
2013-7-16,99.8,71.8,50.2,68.8,53.6,44.2,83,58,21,26.72,26.52,27,2,27,0.07
2013-7-17,94.6,74.0,56.3,63.2,52.3,32.9,97,58,12,26.88,26.72,13,2,13,0.00
2013-7-18,97.2,70.5,45.3,55.6,42.7,28.6,83,46,9,27.02,26.78,8,1,12,0.00
2013-7-19,101.3,72.7,45.4,52.5,42.3,30.8,86,44,9,26.93,26.67,11,1,14,0.00
2013-7-20,99.5,69.5,47.8,54.3,42.6,32.6,79,45,10,26.82,26.58,8,1,10,0.00
2013-7-21,97.9,71.7,43.7,51.4,37.1,15.2,78,37,5,26.77,26.60,10,1,15,0.00
2013-7-22,97.3,67.8,41.2,46.9,34.1,15.0,75,40,5,26.83,26.69,11,2,14,0.00
2013-7-23,98.0,71.0,41.7,58.3,40.0,26.6,79,41,8,26.95,26.71,7,1,8,0.00
2013-7-24,99.2,71.9,49.5,49.9,43.5,36.9,74,43,12,26.86,26.71,13,2,21,0.00
2013-7-25,100.3,74.4,51.2,53.6,47.2,37.1,83,46,12,26.87,26.76,12,1,13,0.00
2013-7-26,97.9,76.4,49.2,57.6,46.8,38.1,83,43,13,26.97,26.75,11,1,13,0.00
2013-7-27,93.4,72.0,56.5,54.9,47.5,36.1,80,49,14,26.83,26.60,12,2,14,0.00
2013-7-28,89.4,65.2,42.2,46.5,36.7,26.7,79,43,11,26.77,26.60,13,2,15,0.00
2013-7-29,89.3,64.3,39.6,50.9,37.2,31.4,80,44,13,26.82,26.68,8,1,12,0.00
2013-7-30,92.4,68.0,47.2,53.8,41.5,29.6,80,46,11,26.92,26.77,11,2,16,0.00
2013-7-31,94.3,66.0,42.7,51.1,41.6,34.9,77,47,17,26.97,26.68,7,1,10,0.00
2013-8-1,87.8,68.5,55.3,59.3,49.6,39.0,72,54,19,26.76,26.55,17,3,28,0.05
2013-8-2,81.3,62.8,41.8,46.1,40.0,25.3,92,52,13,26.92,26.76,15,2,15,0.00
2013-8-3,87.4,62.1,39.1,47.2,37.5,33.2,84,47,15,27.01,26.81,13,1,14,0.00
2013-8-4,94.0,72.9,40.7,41.8,36.5,30.9,83,37,11,26.96,26.80,8,2,14,0.00
2013-8-5,95.0,65.3,43.6,52.1,40.0,33.4,81,48,12,26.72,26.65,10,2,14,0.00
2013-8-6,93.9,71.5,47.3,47.8,39.7,27.8,80,40,10,26.86,26.70,16,1,22,0.00
2013-8-7,97.1,67.3,43.2,44.8,39.1,33.3,75,43,11,26.85,26.61,8,1,11,0.00
2013-8-8,96.9,72.0,56.7,61.3,47.1,38.7,93,49,14,26.74,26.55,14,2,20,0.19
2013-8-9,92.3,70.3,52.2,56.9,48.3,27.5,95,57,10,26.77,26.60,11,1,15,0.00
2013-8-10,91.2,68.9,48.4,58.4,46.6,38.0,90,53,16,26.79,26.66,10,1,13,0.00
2013-8-11,91.7,70.4,52.9,52.9,46.1,37.1,81,49,16,26.86,26.67,10,1,11,0.00
2013-8-12,94.9,75.9,50.6,49.6,44.1,35.2,85,40,13,26.82,26.67,12,3,16,0.00
2013-8-13,94.2,73.6,54.5,52.8,45.3,34.9,75,43,13,26.89,26.72,13,2,14,0.00
2013-8-14,96.3,69.4,45.2,55.0,41.4,25.2,82,45,8,26.89,26.69,10,1,17,0.00
2013-8-15,100.1,69.6,42.7,49.2,37.1,24.3,76,39,7,26.88,26.63,12,2,18,0.00
2013-8-16,96.1,68.7,43.6,53.2,39.3,30.3,81,42,10,26.86,26.71,12,2,17,0.00
2013-8-17,96.8,68.2,44.4,53.4,40.3,33.6,80,44,11,26.91,26.71,11,1,14,0.00
2013-8-18,95.8,68.6,46.1,51.3,43.6,39.0,80,47,16,26.92,26.73,13,2,17,0.00
2013-8-19,96.2,70.4,46.5,53.4,43.7,40.2,82,45,15,26.93,26.70,12,2,15,0.00
2013-8-20,96.6,71.2,45.4,47.3,42.2,37.7,80,42,15,26.87,26.66,12,2,16,0.00
2013-8-21,93.9,70.9,46.4,49.8,43.5,38.9,79,43,17,26.88,26.73,18,3,22,0.00
2013-8-22,92.4,70.0,55.0,55.2,49.8,46.0,75,53,24,26.85,26.60,32,2,32,0.00
2013-8-23,86.1,68.4,54.9,56.2,49.4,37.3,90,57,18,26.76,26.61,13,2,17,0.00
2013-8-24,90.1,63.4,43.8,54.6,45.1,38.7,84,56,21,26.78,26.55,7,1,15,0.00
2013-8-25,91.5,67.6,46.8,57.2,48.6,38.8,93,59,16,26.82,26.62,15,2,24,0.00
2013-8-26,88.3,65.0,47.4,53.1,47.8,41.3,95,62,20,26.89,26.71,10,1,11,0.00
2013-8-27,93.5,68.6,44.5,51.8,45.6,40.1,86,51,21,26.87,26.60,9,2,14,0.00
2013-8-28,91.5,70.9,56.6,59.7,51.6,45.9,85,55,21,26.79,26.66,8,1,9,0.02
2013-8-29,92.8,70.5,51.9,58.2,52.8,45.3,96,62,20,26.87,26.74,14,2,21,0.11
2013-8-30,89.8,70.6,45.3,49.2,43.7,33.7,90,46,14,27.00,26.82,12,3,17,0.00
2013-8-31,95.2,66.4,41.7,49.9,39.4,31.7,85,46,11,26.99,26.71,11,1,12,0.00
2013-9-1,95.5,66.7,43.7,49.2,39.7,35.5,78,44,14,26.86,26.61,9,1,12,0.00
2013-9-2,88.1,69.9,53.4,60.8,49.6,42.0,78,52,28,26.81,26.67,7,1,17,0.00
2013-9-3,79.6,66.3,59.9,65.7,60.9,57.1,95,84,56,26.91,26.80,8,0,8,0.10
2013-9-4,91.0,72.3,56.9,65.0,59.8,55.5,97,70,36,26.96,26.73,16,2,20,0.06
2013-9-5,80.4,65.7,57.9,65.3,60.1,56.3,95,83,53,26.88,26.63,12,1,17,0.67
2013-9-6,78.8,63.7,50.4,59.5,50.9,36.7,97,71,24,26.97,26.81,18,3,18,0.00
2013-9-7,83.3,59.4,40.4,49.6,43.7,38.5,95,64,22,27.03,26.82,11,2,15,0.00
2013-9-8,83.5,61.7,41.1,49.2,44.6,39.0,94,60,28,26.94,26.75,17,2,18,0.00
2013-9-9,85.2,65.2,43.8,49.8,45.8,40.8,92,55,25,26.89,26.72,12,2,15,0.00
2013-9-10,88.0,65.1,43.3,49.5,45.8,40.6,91,57,24,26.92,26.73,13,2,13,0.00
2013-9-11,93.4,67.1,43.6,49.9,45.5,41.4,92,55,18,26.97,26.73,15,2,20,0.00
2013-9-12,85.3,65.4,54.8,61.9,53.4,46.5,93,68,33,26.91,26.73,14,1,23,0.09
2013-9-13,82.7,63.6,55.6,61.8,58.7,54.2,97,86,44,26.85,26.63,36,1,42,0.63
2013-9-14,84.0,65.4,55.9,61.9,57.4,51.4,96,79,35,26.79,26.66,9,1,14,0.00
2013-9-15,87.7,69.3,58.0,58.4,55.7,51.5,95,67,30,26.76,26.57,10,1,15,0.00
2013-9-16,83.5,65.6,50.6,59.3,49.2,35.3,96,65,18,26.75,26.60,12,2,16,0.04
2013-9-17,73.1,58.1,45.1,49.4,45.3,41.6,89,65,40,26.67,26.50,15,3,16,0.00
2013-9-18,63.5,54.6,40.4,45.1,40.8,36.3,85,61,37,27.04,26.67,12,3,17,0.00
2013-9-19,73.0,48.9,30.6,42.2,35.9,28.8,95,68,26,27.18,26.92,9,1,9,0.01
2013-9-20,85.7,55.7,31.3,40.7,34.3,26.7,93,55,12,26.98,26.52,16,1,16,0.00
2013-9-21,71.8,56.1,42.4,42.3,38.5,35.1,83,56,29,26.65,26.51,17,3,20,0.00
2013-9-22,65.1,55.7,46.8,46.0,41.5,38.0,82,60,39,26.74,26.54,16,4,23,0.00
2013-9-23,67.4,54.5,42.1,46.8,42.1,38.8,93,67,38,26.91,26.75,9,1,12,0.01
2013-9-24,52.0,46.7,41.7,48.6,43.7,38.1,95,89,80,26.86,26.70,6,1,7,0.47
2013-9-25,49.9,45.9,43.2,45.6,43.5,41.8,96,91,74,26.70,26.60,11,1,16,0.24
2013-9-26,60.3,48.9,40.2,44.9,39.9,34.2,96,74,42,26.89,26.68,14,2,14,0.08
2013-9-27,57.9,44.8,29.2,41.9,34.2,27.5,94,70,39,27.06,26.89,15,2,18,0.01
2013-9-28,58.7,49.5,43.4,51.8,45.8,41.5,95,88,68,27.07,26.77,5,0,6,0.24
2013-9-29,62.2,50.5,46.2,49.9,47.0,39.8,96,89,44,26.76,26.65,13,1,17,0.22
2013-9-30,60.9,50.3,37.2,49.5,42.2,33.1,97,78,36,26.94,26.61,15,2,17,0.79
2013-10-1,59.1,43.4,35.1,43.5,37.6,33.5,96,82,44,27.07,26.93,5,0,8,0.01
2013-10-2,57.5,41.8,30.8,38.5,34.1,29.5,96,77,44,27.10,26.83,11,2,17,0.00
2013-10-3,55.7,45.6,35.9,41.1,34.8,29.2,94,69,37,27.20,26.84,20,3,25,0.07
2013-10-4,60.4,41.1,26.4,35.0,29.6,24.7,93,69,30,27.43,27.20,14,1,14,0.00
2013-10-5,64.1,41.6,26.2,37.8,31.5,24.5,94,73,32,27.51,27.31,8,1,13,0.01
2013-10-6,70.5,43.7,26.7,45.0,34.1,25.2,96,74,29,27.40,27.02,8,1,9,0.00
2013-10-7,67.6,46.0,30.0,42.9,34.8,28.5,95,71,26,27.05,26.81,10,1,11,0.00
2013-10-8,54.6,41.7,29.1,38.5,33.7,27.6,95,75,47,26.96,26.84,11,2,15,0.01
2013-10-9,63.0,42.3,28.9,40.8,34.0,27.1,96,76,41,26.91,26.69,12,1,18,0.00
2013-10-10,56.8,41.4,29.5,40.6,34.5,28.0,96,79,50,26.91,26.72,20,3,21,0.01
2013-10-11,58.1,40.2,26.3,37.3,31.1,24.8,96,74,40,27.09,26.91,13,2,17,0.00
2013-10-12,60.5,44.0,31.3,38.4,34.4,29.3,93,72,39,27.03,26.84,5,0,6,0.00
2013-10-13,62.7,45.7,29.4,40.8,34.6,27.8,95,69,38,27.08,26.92,11,2,14,0.00
2013-10-14,59.9,43.5,26.1,37.3,31.6,24.4,94,67,34,27.25,27.09,17,2,19,0.00
2013-10-15,59.5,39.6,24.3,35.7,29.6,22.3,93,71,39,27.40,27.18,11,2,16,0.00
2013-10-16,60.5,38.5,25.3,36.4,29.6,23.3,94,74,34,27.25,27.05,3,0,5,0.00
2013-10-17,63.9,41.9,24.5,38.1,30.4,22.8,94,69,29,27.22,27.05,12,2,15,0.00
2013-10-18,60.7,39.4,23.9,35.4,29.5,21.9,94,72,35,27.33,27.15,11,1,14,0.01
2013-10-19,63.9,38.5,23.5,40.7,30.4,21.8,94,76,38,27.28,27.03,4,0,5,0.00
2013-10-20,68.6,43.3,25.5,40.2,31.9,23.8,94,69,30,27.17,27.00,7,1,10,0.01
2013-10-21,67.0,43.3,26.7,40.5,33.3,25.0,100,72,36,27.23,27.06,9,1,13,0.00
2013-10-22,68.8,43.6,27.4,41.6,34.5,25.9,96,75,35,27.27,27.04,12,0,13,0.00
2013-10-23,69.0,42.7,27.8,43.7,34.4,26.3,100,77,36,27.21,27.00,6,0,9,0.00
2013-10-24,69.6,42.1,27.3,42.2,33.9,25.8,96,77,34,27.19,26.99,2,0,4,0.01
2013-10-25,68.4,42.5,27.3,42.5,33.9,25.8,96,76,36,27.26,27.11,2,0,4,0.00
2013-10-26,66.3,39.7,26.2,42.2,32.6,24.7,96,79,38,27.35,27.13,2,0,4,0.01
2013-10-27,57.9,39.6,24.9,39.3,32.3,23.2,96,77,47,27.14,26.50,2,0,5,0.00
2013-10-28,57.9,44.0,37.4,44.6,37.9,34.5,93,81,42,26.67,26.39,13,1,20,0.06
2013-10-29,55.6,41.5,31.2,39.0,34.8,28.5,96,79,50,26.98,26.67,17,2,18,0.00
2013-10-30,47.9,34.7,25.7,36.9,30.7,24.0,95,86,62,27.14,26.98,4,0,6,0.00
2013-10-31,40.3,33.7,25.6,37.0,31.4,23.9,96,91,79,27.26,27.13,3,0,4,0.02
2013-11-1,50.8,39.6,31.2,42.0,36.5,29.5,96,89,69,27.34,27.16,4,0,5,0.00
2013-11-2,43.2,35.6,30.1,41.9,34.2,29.1,96,95,86,27.16,26.83,9,0,11,0.23
2013-11-3,41.5,33.8,30.2,33.3,30.6,28.2,96,88,60,27.06,26.89,9,1,12,0.01
2013-11-4,42.3,32.7,23.3,31.6,27.5,21.0,94,82,51,27.21,27.02,9,1,12,0.01
2013-11-5,29.9,25.3,17.3,28.2,22.8,15.1,95,90,78,27.39,27.21,1,0,3,0.20
2013-11-6,41.4,34.6,29.5,36.7,32.3,28.0,95,91,81,27.45,27.37,2,0,3,0.05
2013-11-7,47.0,39.3,35.2,44.2,38.1,33.9,100,95,88,27.36,26.90,6,0,7,0.48
2013-11-8,46.1,38.9,34.6,39.8,36.5,33.1,97,91,73,27.13,26.99,2,0,3,0.00
2013-11-9,50.7,37.1,31.7,39.9,34.1,30.7,97,89,61,27.25,27.12,2,0,3,0.00
2013-11-10,56.7,37.3,29.2,42.3,33.2,28.2,97,87,52,27.28,27.12,2,0,3,0.00
2013-11-11,54.0,38.4,29.4,42.1,34.1,28.1,97,86,60,27.38,27.23,1,0,3,0.00
2013-11-12,49.4,36.9,27.7,40.0,33.2,26.5,96,87,63,27.43,27.36,3,0,3,0.00
2013-11-13,57.7,42.4,29.6,43.9,37.1,27.8,100,83,46,27.37,27.21,15,1,17,0.04
2013-11-14,44.5,33.3,27.4,36.2,30.3,25.9,96,89,65,27.29,26.87,4,0,4,0.00
2013-11-15,41.7,32.7,27.9,34.7,29.4,26.4,96,88,61,26.90,26.60,5,0,8,0.02
2013-11-16,40.8,33.3,27.9,34.5,30.9,26.6,96,91,63,26.82,26.47,15,1,19,0.44
2013-11-17,45.7,33.1,26.5,34.6,29.2,24.8,96,87,55,27.17,26.83,2,0,3,0.00
2013-11-18,37.7,29.7,22.7,32.2,27.4,21.2,95,91,79,27.19,26.97,1,0,2,0.00
2013-11-19,36.2,34.4,31.9,35.2,33.2,30.4,97,95,94,26.98,26.85,1,0,2,0.92
2013-11-20,44.5,37.4,31.7,39.3,29.9,18.2,97,77,52,27.08,26.80,15,3,17,0.99
2013-11-21,45.1,30.1,21.2,23.7,19.8,14.1,89,69,31,27.63,27.08,6,1,10,0.00
2013-11-22,39.9,24.8,15.5,22.9,18.3,13.1,91,78,41,27.71,27.56,3,0,4,0.00
2013-11-23,42.9,25.2,15.5,25.4,19.7,13.1,91,81,47,27.61,27.35,3,0,3,0.00
2013-11-24,43.5,26.3,15.8,27.9,20.9,13.4,92,81,49,27.40,27.27,2,0,4,0.00
2013-11-25,46.0,27.9,18.7,31.1,23.3,16.5,93,84,53,27.51,27.40,1,0,3,0.00
2013-11-26,47.8,29.1,19.8,34.0,24.9,17.6,95,85,54,27.50,27.25,2,0,2,0.00
2013-11-27,41.1,25.9,22.3,32.3,23.7,20.3,100,92,69,27.29,27.13,1,0,3,0.00
2013-11-28,48.4,30.8,22.0,33.4,26.3,20.3,95,85,51,27.25,27.10,2,0,6,0.00
2013-11-29,46.8,29.8,22.3,33.2,25.8,20.4,95,86,57,27.37,27.24,1,0,4,0.00
2013-11-30,37.5,32.5,25.5,33.3,30.0,23.8,95,90,82,27.38,27.32,0,0,3,0.00
2013-12-1,40.0,35.1,33.5,39.2,34.1,32.2,100,96,95,27.35,26.92,6,0,8,1.06
2013-12-2,52.8,43.6,27.1,42.5,31.8,16.9,97,64,49,26.91,26.52,19,4,21,0.09
2013-12-3,35.0,25.3,18.0,22.7,17.7,11.4,91,74,46,27.00,26.78,9,1,11,0.00
2013-12-4,23.2,17.7,11.0,12.6,9.4,2.8,86,71,44,27.27,27.01,11,2,12,0.00
2013-12-5,22.2,17.4,10.3,13.1,10.2,6.3,86,74,53,27.27,27.19,9,1,13,0.00
2013-12-6,21.7,13.2,4.5,14.3,7.3,1.2,87,77,56,27.30,27.01,4,0,5,0.00
2013-12-7,26.3,19.4,9.7,18.3,13.7,4.8,90,79,64,27.18,26.89,18,2,22,0.03
2013-12-8,15.8,6.2,-3.2,4.6,0.2,-6.8,86,76,60,27.63,27.19,22,2,24,0.00
2013-12-9,20.9,10.0,-2.6,10.8,2.7,-6.4,86,73,50,27.80,27.64,2,0,4,0.00
2013-12-10,27.4,19.5,8.6,12.9,10.8,5.3,87,70,50,27.64,27.45,12,2,14,0.00
2013-12-11,28.1,14.7,4.1,16.7,9.4,0.9,89,80,60,27.73,27.60,6,0,9,0.00
2013-12-12,31.5,16.4,5.9,20.7,11.7,2.9,90,82,62,27.64,27.34,7,0,10,0.00
2013-12-13,37.5,27.0,15.3,29.0,22.7,12.7,91,84,70,27.53,27.36,10,1,12,0.03
2013-12-14,40.4,32.1,27.3,32.2,28.6,25.3,93,87,72,27.59,27.51,1,0,2,0.00
2013-12-15,38.1,30.3,23.5,31.7,27.0,21.8,95,88,75,27.58,27.44,2,0,4,0.00
2013-12-16,39.0,25.7,20.1,30.2,22.7,17.9,95,89,66,27.60,27.49,1,0,2,0.00
2013-12-17,38.4,23.4,14.5,27.3,19.4,12.1,93,85,61,27.60,27.27,8,0,10,0.00
2013-12-18,33.9,23.2,14.3,26.8,19.8,12.0,93,87,74,27.27,26.87,9,0,10,0.00
2013-12-19,41.7,29.1,17.9,24.0,19.3,13.8,94,70,39,27.08,26.85,13,2,17,0.00
2013-12-20,23.7,18.2,9.6,21.0,14.8,6.8,93,86,76,27.14,26.91,2,0,2,0.19
2013-12-21,32.1,24.9,14.5,26.1,21.7,11.7,93,88,72,27.18,26.90,3,0,3,0.00
2013-12-22,36.9,31.1,26.9,32.6,29.1,25.2,95,92,84,27.39,27.18,0,0,2,0.00
2013-12-23,35.4,33.7,32.5,34.5,32.7,31.2,97,96,95,27.41,27.24,6,0,8,0.24
2013-12-24,36.6,28.3,19.6,34.2,26.3,17.9,97,92,80,27.66,27.31,4,0,5,0.00
2013-12-25,32.4,20.5,14.4,25.1,17.6,12.3,94,89,68,27.75,27.60,2,0,2,0.00
2013-12-26,35.5,22.5,13.4,27.6,19.3,11.3,93,88,68,27.66,27.52,1,0,2,0.00
2013-12-27,34.3,22.4,13.6,27.2,19.5,11.6,93,89,73,27.58,27.31,1,0,2,0.00
2013-12-28,39.1,24.6,18.0,30.1,21.4,15.8,95,88,67,27.49,27.30,4,0,6,0.00
2013-12-29,33.7,20.3,10.7,24.5,16.3,8.4,92,85,60,27.56,27.40,1,0,3,0.00
2013-12-30,33.5,24.3,16.3,26.5,20.3,14.1,92,85,69,27.50,27.34,1,0,2,0.00
2013-12-31,36.5,31.8,27.1,31.0,28.2,25.4,93,87,76,27.38,27.23,2,0,2,0.00
2014-1-1,38.0,27.6,22.9,31.1,25.0,20.9,95,90,72,27.52,27.36,2,0,3,0.00
2014-1-2,40.4,26.6,18.1,28.0,22.7,16.4,95,86,58,27.47,27.21,4,0,4,0.00